Tracking 31027 objects as of 19-Jul-2025
HD Live streaming from Space Station
objects crossing your sky now

COSMOS 951

Track COSMOS 951 now!
10-day predictions
COSMOS 951 is classified as:


NORAD ID: 10352
Int'l Code: 1977-087A
Perigee: 967.0 km
Apogee: 1,015.6 km
Inclination: 83.0 °
Period: 104.8 minutes
Semi major axis: 7362 km
RCS: 4.4489 m2 (large)
Launch date: September 13, 1977
Source: Commonwealth of Independent States (former USSR) (CIS)
Launch site: PLESETSK MISSILE AND SPACE COMPLEX (PKMTR)
Your satellite tracking list
NOAA 16 DEB
Track 1 satellite(s)




NASA's NSSDC Master Catalog

Two Line Element Set (TLE):
1 10352U 77087A   25199.58333918  .00000033  00000-0  19159-4 0  9991
2 10352  82.9674  58.2147 0032995 221.5510 166.8820 13.74309300398663
Source of the keplerian elements: AFSPC